Regional Weather Roundup
Issued by NWS Green Bay, WI

Home | Current Version | Previous Version | Text Only | Print | Product List | Glossary On
Versions: 1 2 3 4 5 6 7 8 9 10 11 12 13 14 15 16 17 18 19 20 21 22 23 24 25 26 27 28 29 30 31 32 33 34 35 36 37 38 39 40 41 42 43 44 45 46 47 48 49 50
000
ASUS43 KGRB 211011
RWRGRB

NORTH-CENTRAL AND NORTHEAST WISCONSIN REGIONAL WEATHER ROUNDUP
NATIONAL WEATHER SERVICE GREEN BAY WI
400 AM CST SAT JAN 21 2017

WIZ005-009-010>012-018-019-211100-
NORTH CENTRAL WISCONSIN

CITY           SKY/WX    TMP DP  RH WIND       PRES   REMARKS
IRONWOOD       CLOUDY    35  33  92 SE6       29.55F
MANITOWISH WTR CLOUDY    32  32 100 SE5       29.53F
ARBOR VITAE    CLOUDY    34  33  96 SE8       29.54F FOG
EAGLE RIVER    CLOUDY    32  32 100 SE3       29.55F
LAND O LAKES   CLOUDY    33  33 100 SE5       29.57F
RHINELANDER    CLOUDY    33  33 100 SE7       29.55F FOG
PHILLIPS       CLOUDY    32  32 100 SE5       29.52F FOG
ANTIGO         CLOUDY    32  32 100 E6        29.55F FOG
TOMAHAWK       CLOUDY    32  32  99 E3        29.55F FOG
MERRILL        CLOUDY    33  33 100 E5          N/A  FOG
$$

WIZ013-073-211100-
NORTHEAST WISCONSIN

CITY           SKY/WX    TMP DP  RH WIND       PRES   REMARKS
IRON MOUNTAIN  FOG       32  30  92 SE5       29.59F VSB 3/4
MARINETTE      NOT AVBL
OCONTO         CLOUDY    33  32  99 E3        29.61F VSB 3/4
$$

WIZ017-030-035>037-045-211100-
CENTRAL WISCONSIN

CITY           SKY/WX    TMP DP  RH WIND       PRES   REMARKS
MEDFORD        FOG       32  32  99 E7        29.52F VSB 1/2
WAUSAU         FOG       32  32 100 E7        29.54F VSB 3/4
MOSINEE        FOG       32  32 100 E9        29.55F VSB 1/2
MARSHFIELD     FOG       33  32  96 E9        29.52F VSB 1/2
WISC RAPIDS    FOG       34  34 100 E9        29.54F VSB 3/4
STEVENS POINT  FOG       32  32 100 E8        29.56F VSB 3/4
WAUPACA        FOG       36  35  96 CALM      29.58S VSB 1/2
SHAWANO        FOG       34  33  95 CALM      29.61S VSB 1/2
CLINTONVILLE   CLOUDY    34  32  93 E6        29.59F FOG
WAUTOMA        LGT RAIN  34  34 100 E6        29.56F VSB 3/4
$$

WIZ038-039-048-051-211100-
FOX VALLEY

CITY           SKY/WX    TMP DP  RH WIND       PRES   REMARKS
NWS GREEN BAY  FOG       36  36 100 E6        29.60F VSB 1/4
APPLETON       FOG       34  34 100 E7        29.56F VSB 1/4
OSHKOSH        FOG       34  34 100 E3        29.57S VSB 1/4
FOND DU LAC    CLOUDY    37  34  89 SE3       29.56F
$$

WIZ022-050-052-211100-
EAST CENTRAL WISCONSIN

CITY           SKY/WX    TMP DP  RH WIND       PRES   REMARKS
EPHRAIM        FOG       34  34 100 CALM      29.61F VSB 1/2
WASHINGTON ISL CLOUDY    32  32 100 CALM      29.63F FOG
STURGEON BAY   CLOUDY    36  34  93 SE7       29.62F FOG
MANITOWOC      LGT RAIN  36  35  96 MISG      29.60F VSB 1/4
SHEBOYGAN      LGT RAIN  36  35  96 E6        29.59F VSB 1/2
$$

LMZ563-521-522-541>543-211100-
LAKESHORE

STATION/POSITION TIME  TEMP    WIND        PRES    VSBY  WAVE
                       AIR SEA DIR/SP/G                  HT/PER
                 (UTC) (F)     (DEG/KT/KT) (MB)    (MI)  (FT/S)
SHEBOYGAN LKSHOR 1000   36      70/  4/  4 1002.2F
KEWAUNEE LKSHORE 0942   36     140/  7/  9 1002.6F
NORTHPORT PIER   0940   33        CALM     1003.7F
SISTER BAY LKSHO 0935   35        CALM       N/A
$$




USA.gov is the U.S. government's official web portal to all federal, state and local government web resources and services.